• In Netherlands
  • List of Countries
  • For 7 days
  • Water Temperature
  • Satellite Maps
  • Weather Map
  • Weather Widgets
  • user-avatar
    Login

    Hourly Weather Megri

    Today, 25 April, Tuesday

    Time Temperature Precipitation Wind Pressure Humidity
    00:00 +7°C° 0 mm 2 mps 620 mmHg 75%
    01:00 +6°C° 0 mm 2 mps 620 mmHg 77%
    02:00 +6°C° 0 mm 2 mps 620 mmHg 79%
    03:00 +5°C° 0 mm 2 mps 619 mmHg 82%
    04:00 +5°C° 0 mm 2 mps 620 mmHg 81%
    05:00 +5°C° 0 mm 2 mps 620 mmHg 80%
    06:00 +6°C° 0 mm 2 mps 620 mmHg 79%
    07:00 +7°C° 0 mm 2 mps 621 mmHg 70%
    08:00 +9°C° 0 mm 2 mps 622 mmHg 61%
    09:00 +10°C° 0 mm 2 mps 622 mmHg 52%
    10:00 +12°C° 0 mm 2 mps 623 mmHg 47%
    11:00 +13°C° 0 mm 2 mps 623 mmHg 43%
    12:00 +14°C° 0 mm 2 mps 623 mmHg 38%
    13:00 +14°C° 0 mm 2 mps 623 mmHg 37%
    14:00 +14°C° 0 mm 3 mps 623 mmHg 36%
    15:00 +14°C° 0 mm 3 mps 623 mmHg 36%
    16:00 +13°C° 0 mm 4 mps 623 mmHg 42%
    17:00 +11°C° 0 mm 4 mps 623 mmHg 49%
    18:00 +9°C° 0 mm 5 mps 623 mmHg 56%
    19:00 +7°C° 0 mm 4 mps 623 mmHg 62%
    20:00 +6°C° 0 mm 4 mps 623 mmHg 68%
    21:00 +5°C° 0 mm 4 mps 623 mmHg 74%
    22:00 +4°C° 0 mm 4 mps 624 mmHg 75%
    23:00 +4°C° 0 mm 4 mps 624 mmHg 77%

    Tomorrow, 26 April, Wednesday

    Time Temperature Precipitation Wind Pressure Humidity
    00:00 +3°C° 0 mm 4 mps 624 mmHg 78%
    01:00 +3°C° 0 mm 4 mps 625 mmHg 79%
    02:00 +1°C° 0 mm 4 mps 625 mmHg 79%
    03:00 +1°C° 0 mm 4 mps 625 mmHg 80%
    04:00 +1°C° 0 mm 4 mps 625 mmHg 79%
    05:00 +1°C° 0 mm 4 mps 626 mmHg 78%
    06:00 +1°C° 0 mm 4 mps 626 mmHg 78%
    07:00 +3°C° 0 mm 4 mps 627 mmHg 70%
    08:00 +4°C° 0 mm 4 mps 627 mmHg 63%
    09:00 +6°C° 0 mm 5 mps 628 mmHg 55%
    10:00 +7°C° 0 mm 5 mps 628 mmHg 52%
    11:00 +8°C° 0 mm 5 mps 628 mmHg 49%
    12:00 +8°C° 0 mm 5 mps 628 mmHg 46%
    13:00 +9°C° 0 mm 5 mps 628 mmHg 45%
    14:00 +9°C° 0 mm 5 mps 627 mmHg 45%
    15:00 +9°C° 0 mm 5 mps 627 mmHg 44%
    16:00 +8°C° 0 mm 5 mps 627 mmHg 48%
    17:00 +7°C° 0 mm 5 mps 627 mmHg 53%
    18:00 +6°C° 0 mm 5 mps 626 mmHg 57%
    19:00 +5°C° 0 mm 5 mps 626 mmHg 62%
    20:00 +3°C° 0 mm 4 mps 626 mmHg 68%
    21:00 +1°C° 0 mm 4 mps 626 mmHg 73%
    22:00 +1°C° 0 mm 4 mps 626 mmHg 75%
    23:00 0°C° 0 mm 4 mps 626 mmHg 76%

    Day after tomorrow, 27 April, Thursday

    Time Temperature Precipitation Wind Pressure Humidity
    00:00 +1°C° 0 mm 3 mps 626 mmHg 77%
    01:00 +1°C° 0 mm 3 mps 626 mmHg 78%
    02:00 0°C° 0 mm 3 mps 626 mmHg 78%
    03:00 0°C° 0 mm 3 mps 626 mmHg 78%
    04:00 0°C° 0 mm 3 mps 626 mmHg 76%
    05:00 0°C° 0 mm 3 mps 626 mmHg 74%
    06:00 +1°C° 0 mm 3 mps 626 mmHg 72%
    07:00 +3°C° 0 mm 3 mps 627 mmHg 63%
    08:00 +5°C° 0 mm 3 mps 627 mmHg 54%
    09:00 +8°C° 0 mm 3 mps 628 mmHg 45%
    10:00 +8°C° 0 mm 4 mps 628 mmHg 43%
    11:00 +11°C° 0 mm 4 mps 628 mmHg 41%
    12:00 +12°C° 0 mm 4 mps 628 mmHg 38%
    13:00 +12°C° 0 mm 4 mps 628 mmHg 39%
    14:00 +13°C° 0 mm 4 mps 627 mmHg 40%
    15:00 +13°C° 0 mm 4 mps 627 mmHg 40%
    16:00 +12°C° 0 mm 5 mps 627 mmHg 46%
    17:00 +9°C° 0 mm 5 mps 626 mmHg 52%
    18:00 +8°C° 0 mm 5 mps 626 mmHg 57%
    19:00 +7°C° 0 mm 4 mps 626 mmHg 63%
    20:00 +5°C° 0 mm 4 mps 626 mmHg 70%
    21:00 +4°C° 0 mm 4 mps 626 mmHg 76%
    22:00 +4°C° 0 mm 3 mps 626 mmHg 77%
    23:00 +3°C° 0 mm 3 mps 626 mmHg 79%

    28 April, Friday

    Time Temperature Precipitation Wind Pressure Humidity
    00:00 +3°C° 0 mm 3 mps 626 mmHg 80%
    01:00 +3°C° 0 mm 3 mps 625 mmHg 80%
    02:00 +2°C° 0 mm 3 mps 625 mmHg 80%
    03:00 +3°C° 0 mm 2 mps 625 mmHg 80%
    04:00 +3°C° 0 mm 2 mps 625 mmHg 78%
    05:00 +4°C° 0 mm 2 mps 625 mmHg 76%
    06:00 +4°C° 0 mm 2 mps 625 mmHg 73%
    07:00 +6°C° 0 mm 2 mps 626 mmHg 65%
    08:00 +9°C° 0 mm 2 mps 627 mmHg 57%
    09:00 +12°C° 0 mm 2 mps 627 mmHg 48%
    10:00 +12°C° 0 mm 3 mps 627 mmHg 45%
    11:00 +14°C° 0 mm 3 mps 627 mmHg 42%
    12:00 +16°C° 0 mm 3 mps 627 mmHg 39%
    13:00 +17°C° 0 mm 3 mps 627 mmHg 39%
    14:00 +17°C° 0 mm 3 mps 627 mmHg 39%
    15:00 +17°C° 0 mm 3 mps 626 mmHg 39%
    16:00 +16°C° 0.1 mm 3 mps 626 mmHg 44%
    17:00 +14°C° 0.1 mm 3 mps 626 mmHg 49%
    18:00 +13°C° 0.1 mm 4 mps 625 mmHg 54%
    19:00 +11°C° 0.1 mm 3 mps 625 mmHg 61%
    20:00 +10°C° 0.1 mm 3 mps 625 mmHg 67%
    21:00 +8°C° 0.1 mm 3 mps 624 mmHg 74%
    22:00 +8°C° 0.2 mm 3 mps 624 mmHg 76%
    23:00 +8°C° 0.2 mm 3 mps 624 mmHg 77%

    29 April, Saturday

    Time Temperature Precipitation Wind Pressure Humidity
    00:00 +7°C° 0.2 mm 2 mps 623 mmHg 79%
    01:00 +7°C° 0.2 mm 2 mps 623 mmHg 80%
    02:00 +7°C° 0.2 mm 2 mps 623 mmHg 81%
    03:00 +6°C° 0.2 mm 2 mps 622 mmHg 82%
    04:00 +7°C° 0.1 mm 2 mps 623 mmHg 81%
    05:00 +7°C° 0.1 mm 2 mps 623 mmHg 80%
    06:00 +8°C° 0.1 mm 2 mps 623 mmHg 79%
    07:00 +11°C° 0 mm 1 mps 624 mmHg 70%
    08:00 +13°C° 0 mm 1 mps 625 mmHg 61%
    09:00 +15°C° 0 mm 1 mps 625 mmHg 53%
    10:00 +16°C° 0.4 mm 1 mps 625 mmHg 48%
    11:00 +18°C° 0.4 mm 1 mps 625 mmHg 44%
    12:00 +19°C° 0.4 mm 1 mps 625 mmHg 39%
    13:00 +20°C° 0.7 mm 1 mps 625 mmHg 39%
    14:00 +19°C° 0.7 mm 2 mps 625 mmHg 38%
    15:00 +19°C° 0.7 mm 2 mps 624 mmHg 37%
    16:00 +18°C° 0.5 mm 2 mps 624 mmHg 41%
    17:00 +17°C° 0.5 mm 2 mps 624 mmHg 46%
    18:00 +16°C° 0.5 mm 2 mps 624 mmHg 50%
    19:00 +15°C° 0.5 mm 2 mps 623 mmHg 58%
    20:00 +13°C° 0.5 mm 2 mps 623 mmHg 65%
    21:00 +10°C° 0.5 mm 2 mps 623 mmHg 73%
    22:00 +10°C° 0.2 mm 2 mps 623 mmHg 75%
    23:00 +9°C° 0.2 mm 2 mps 622 mmHg 77%

    30 April, Sunday

    Time Temperature Precipitation Wind Pressure Humidity
    00:00 +10°C° 0.2 mm 1 mps 622 mmHg 79%
    01:00 +9°C° 0 mm 1 mps 622 mmHg 79%
    02:00 +9°C° 0 mm 1 mps 622 mmHg 79%
    03:00 +9°C° 0 mm 1 mps 621 mmHg 79%
    04:00 +9°C° 0 mm 1 mps 622 mmHg 77%
    05:00 +10°C° 0 mm 1 mps 622 mmHg 75%
    06:00 +10°C° 0 mm 1 mps 623 mmHg 73%
    07:00 +12°C° 0 mm 1 mps 623 mmHg 61%
    08:00 +15°C° 0 mm 1 mps 624 mmHg 50%
    09:00 +18°C° 0 mm 1 mps 625 mmHg 38%
    10:00 +18°C° 0 mm 2 mps 625 mmHg 35%
    11:00 +19°C° 0 mm 2 mps 625 mmHg 31%
    12:00 +20°C° 0 mm 3 mps 625 mmHg 28%
    13:00 +21°C° 0.1 mm 3 mps 625 mmHg 27%
    14:00 +21°C° 0.1 mm 3 mps 624 mmHg 27%
    15:00 +21°C° 0.1 mm 3 mps 624 mmHg 26%
    16:00 +20°C° 0.2 mm 3 mps 624 mmHg 30%
    17:00 +19°C° 0.2 mm 2 mps 624 mmHg 35%
    18:00 +19°C° 0.2 mm 1 mps 623 mmHg 40%
    19:00 +16°C° 0.2 mm 2 mps 623 mmHg 47%
    20:00 +14°C° 0.2 mm 2 mps 622 mmHg 55%
    21:00 +13°C° 0.2 mm 2 mps 622 mmHg 63%
    22:00 +12°C° 0.1 mm 2 mps 622 mmHg 66%
    23:00 +12°C° 0.1 mm 2 mps 622 mmHg 69%
    Show more